Regional Weather Roundup
Issued by NWS

Home | Current Version | Previous Version | Text Only | Print | Product List | Glossary Off
Versions: 1 2 3 4 5 6 7 8 9 10 11 12 13 14 15 16 17 18 19 20 21 22 23 24 25 26 27 28 29 30 31 32 33 34 35 36 37 38 39 40 41 42 43 44 45 46 47 48 49 50

000
ASUS43 KIND 211609
RWRIN

WEATHER ROUNDUP FOR INDIANA
NATIONAL WEATHER SERVICE INDIANAPOLIS IN
1200 PM EDT TUE OCT 21 2014

NOTE: "FAIR" INDICATES FEW OR NO CLOUDS BELOW 12,000 FEET WITH NO
SIGNIFICANT WEATHER AND/OR OBSTRUCTIONS TO VISIBILITY.

* - STATION DOES NOT REPORT WEATHER SUCH AS PRECIPITATION OR FOG.

+ - STATION NOT QUALITY CONTROLLED BY THE NATIONAL WEATHER SERVICE.
    USE DATA WITH CAUTION...ESPECIALLY DEWPOINT AND RELATIVE
    HUMIDITY OBSERVATIONS.

INZ001>003-010>013-019-020-211700-
NORTHWEST INDIANA

CITY           SKY/WX    TMP DP  RH WIND       PRES   REMARKS
GARY /AIRPORT/ CLOUDY    52  45  76 N14G28    30.15R
KNOX *+        CLOUDY    50  46  87 N9        30.11R
LA PORTE +     DRIZZLE   51  49  94 N10       30.12R
MICHIGAN CITY+ CLOUDY    50  43  76 NE6       30.12S
MONTICELLO +   CLOUDY    51  43  72 N12       30.11S
RENSSELAER +   CLOUDY    52  45  76 NW12      30.13R
VALPARAISO     LGT RAIN  50  47  89 N9        30.13R

$$

LMZ046-743>745-211700-
SOUTHERN LAKE MICHIGAN

STATION/POSITION TIME  TEMP WIND        PRES
                       AIR  DIR/SP/G
                 (UTC) (F)  (DEG/KT/KT) (MB)
MICHIGAN CITY    1600   51  340/ 24/ 27   N/A

$$

INZ004-005-014>016-021>024-211700-
NORTH CENTRAL INDIANA

CITY           SKY/WX    TMP DP  RH WIND       PRES   REMARKS
ELKHART        CLOUDY    50  41  71 N8        30.10R
GOSHEN         CLOUDY    50  43  77 N10       30.09R
LOGANSPORT +   CLOUDY    52  41  66 N10G18    30.11R
PERU/GRISSOM   PTSUNNY   52  46  81 N15       30.09R
ROCHESTER +    CLOUDY    54  45  71 N9        30.10S
SOUTH BEND     PTSUNNY   51  44  77 N13       30.12R
WARSAW +       CLOUDY    50  43  76 N9        30.09S

$$

INZ006>009-017-018-025>027-211700-
NORTHEAST INDIANA

CITY           SKY/WX    TMP DP  RH WIND       PRES   REMARKS
ANGOLA *+      CLOUDY    48  36  61 N9        30.07R
AUBURN +       CLOUDY    50  43  76 N10       30.08R
FORT WAYNE     CLOUDY    50  43  77 NW12      30.08R
HUNTINGTON +   CLOUDY    49  43  78 N8        30.08R

$$

INZ028-029-035-036-043>045-051>053-211700-
WEST CENTRAL INDIANA

CITY           SKY/WX    TMP DP  RH WIND       PRES   REMARKS
GREENCASTLE +  CLOUDY    50  45  81 N13       30.11S
LAFAYETTE      MOSUNNY   55  42  61 N12G20    30.12R
TERRE HAUTE    CLOUDY    55  42  61 N9        30.11S

$$

INZ030>032-037>040-046>048-054>057-064-065-211700-
CENTRAL INDIANA

CITY           SKY/WX    TMP DP  RH WIND       PRES   REMARKS
ANDERSON       PTSUNNY   54  39  58 NW12G23   30.08R
CP ATTERBURY + CLOUDY    52  43  71 N15G21    30.10R
COLUMBUS       PTSUNNY   50  46  87 N13G21    30.09R
FRANKFORT +    CLOUDY    54  45  71 NW12      30.11S HAZE
INDIANAPOLIS   PTSUNNY   52  44  74 N13       30.10R
-EAGLE CREEK   CLOUDY    52  44  74 N13G18    30.09R
KOKOMO *+      CLOUDY    54 N/A N/A N13G22    30.09R
MARION +       CLOUDY    51  41  68 N13       30.09R
MT COMFORT *+  PTSUNNY   54  39  58 NW14      30.08S
SHELBYVILLE    CLOUDY    55  42  61 N15       30.07S
ZIONSVILLE +   PTSUNNY   54  41  62 N16       30.10R

$$

INZ033-034-041-042-049-050-058-059-211700-
EAST CENTRAL INDIANA

CITY           SKY/WX    TMP DP  RH WIND       PRES   REMARKS
MUNCIE         CLOUDY    52  42  69 N16G22    30.07R

$$

INZ060-061-067>069-081>083-085>088-211700-
SOUTHWEST INDIANA

CITY           SKY/WX    TMP DP  RH WIND       PRES   REMARKS
EVANSVILLE     SUNNY     61  45  55 NE9       30.10S
HUNTINGBURG *+ SUNNY     59  45  58 N13       30.10R
WASHINGTON +   CLOUDY    58  46  66 N8        30.10S

$$

INZ062-063-066-070>080-084-089>092-211700-
SOUTH CENTRAL AND SOUTHEAST INDIANA

CITY           SKY/WX    TMP DP  RH WIND       PRES   REMARKS
BLOOMINGTON    CLOUDY    54  45  71 N10       30.09S
NORTH VERNON + CLOUDY    54  45  71 NW9       30.08

$$



USA.gov is the U.S. government's official web portal to all federal, state and local government web resources and services.